This is the latest recevied weather packets stored in our database for station/object OE6ACM-14. If no packets are shown the sender has not sent any weather packets the latest 10 day(s).
| Time | Temp. | Humidity | Pressure | Rain* | Wind** | Luminosity | Snow |
|---|---|---|---|---|---|---|---|
| 1777373272 | 22.22° C | 32% | 928.1 hPa | - | - | - | - |
| 1777372971 | 22.78° C | 32% | 928.2 hPa | - | - | - | - |
| 1777372668 | 22.78° C | 35% | 928.2 hPa | - | - | - | - |
| 1777372368 | 23.33° C | 29% | 928.2 hPa | - | - | - | - |
| 1777372068 | 23.33° C | 29% | 928.2 hPa | - | - | - | - |
| 1777371767 | 23.89° C | 29% | 928.4 hPa | - | - | - | - |
| 1777371467 | 23.33° C | 29% | 928.4 hPa | - | - | - | - |
| 1777371167 | 23.89° C | 29% | 928.4 hPa | - | - | - | - |
| 1777370869 | 23.89° C | 28% | 928.4 hPa | - | - | - | - |
| 1777370568 | 24.44° C | 28% | 928.5 hPa | - | - | - | - |
| 1777370268 | 24.44° C | 28% | 928.5 hPa | - | - | - | - |
| 1777369969 | 24.44° C | 28% | 928.6 hPa | - | - | - | - |
| 1777369667 | 25° C | 26% | 928.6 hPa | - | - | - | - |
| 1777369367 | 25.56° C | 26% | 928.6 hPa | - | - | - | - |
| 1777369067 | 25.56° C | 26% | 928.7 hPa | - | - | - | - |
| 1777368767 | 25.56° C | 26% | 928.8 hPa | - | - | - | - |
| 1777368470 | 26.11° C | 26% | 928.8 hPa | - | - | - | - |
| 1777368169 | 26.11° C | 26% | 928.8 hPa | - | - | - | - |
| 1777367870 | 26.11° C | 26% | 928.8 hPa | - | - | - | - |
| 1777367570 | 25.56° C | 25% | 928.9 hPa | - | - | - | - |
| 1777367267 | 25° C | 25% | 929 hPa | - | - | - | - |
| 1777366968 | 25.56° C | 25% | 929 hPa | - | - | - | - |
| 1777366667 | 26.67° C | 24% | 928.9 hPa | - | - | - | - |
| 1777366371 | 26.67° C | 24% | 928.9 hPa | - | - | - | - |
| 1777366068 | 24.44° C | 25% | 929 hPa | - | - | - | - |
* Rain since midnight (hover to see other rain measurements)
** Current wind speed in m/s (hover to see current wind gust speed)